#timestamp,LO_Frequency,Hit,StdDev 
1506384015.0,286046993.7,N
1506384016.0,286046993.7,N
1506384035.8,286046994.6,N
1506384055.6,286046994.2,N
1506384075.4,286046990.3,N
1506384095.3,286046991.0,N
1506384115.1,286046991.4,N
1506384135.8,286046991.3,N
1506384155.7,286046987.6,N
1506384175.5,286046986.3,N
1506384195.3,286046983.2,N
1506384215.2,286046981.4,N
1506384235.9,286046979.7,N
1506384255.7,286046977.3,Y
1506384275.6,286046981.1,P
1506384295.4,286046980.9,N
1506384315.2,286046980.5,N
1506384335.1,286046984.4,N
1506384336.0,286046984.4,N
1506384355.8,286046985.0,N
1506384375.6,286046985.6,N
1506384395.5,286046987.7,N
1506384415.3,286046986.1,Y
1506384435.1,286046998.6,P
1506384455.9,286047002.0,N
1506384475.7,286047002.4,N
1506384495.5,286047002.6,N
1506384515.4,286047004.6,N
1506384535.2,286047005.1,N
1506384555.0,286047003.0,N
1506384555.9,286047003.0,N
1506384575.8,286047005.1,N
1506384595.6,286047007.2,N
1506384615.4,286047007.2,N
1506384635.2,286047007.1,N
1506384655.1,286047008.9,N
1506384656.0,286047008.9,N
1506384675.8,286047007.7,N
1506384695.6,286047010.8,N
1506384715.5,286047013.9,N
1506384735.3,286047013.4,N
1506384755.1,286047011.5,N
1506384775.9,286047011.4,N
1506384795.7,286047009.7,N
1506384815.5,286047011.7,N
1506384835.4,286047009.7,N
1506384855.2,286047009.9,N
1506384875.0,286047013.4,N
1506384875.9,286047013.4,N
1506384895.8,286047011.9,N
1506384915.6,286047012.2,N
1506384935.4,286047013.9,N
1506384955.2,286047011.2,N
1506384975.1,286047013.1,Y
1506384976.0,286047013.1,P
1506384995.8,286047004.7,N
1506385015.6,286047005.2,N
1506385035.5,286047005.8,N
1506385055.3,286047003.8,N
1506385075.1,286047004.0,N
1506385095.9,286047004.2,N
1506385115.7,286047005.6,N
1506385135.5,286047006.9,N
1506385155.4,286047008.8,Y
1506385175.2,286047002.3,P
1506385195.0,286047001.2,N
1506385195.9,286047001.2,N
1506385215.8,286047000.8,N
1506385235.6,286046996.5,N
1506385255.4,286046993.3,N
1506385275.3,286046992.9,N
1506385295.1,286046991.4,N
1506385296.0,286046991.4,N
1506385315.8,286046990.8,N
1506385335.7,286046991.9,N
1506385355.5,286046995.7,N
1506385375.3,286046993.7,N
1506385395.1,286046992.2,N
1506385415.9,286046991.0,N
1506385435.7,286046993.2,N
1506385455.5,286046989.0,N
1506385475.4,286046989.2,N
1506385495.2,286046988.9,N
1506385515.0,286046991.5,N
1506385515.9,286046991.5,N
1506385535.8,286046991.5,N
1506385555.6,286046991.6,N
1506385575.4,286046989.0,N
1506385595.3,286046986.9,N
1506385615.1,286046990.2,N
1506385616.0,286046990.2,N
1506385635.8,286046991.8,N
1506385655.7,286046995.7,N
1506385675.5,286046996.1,N
1506385695.3,286046990.5,N
1506385715.2,286046995.8,N
1506385735.9,286046997.1,N
1506385755.7,286046999.6,N
1506385775.5,286046999.1,N
1506385795.4,286046997.7,N
1506385815.2,286046999.9,N
1506385835.0,286047004.0,N
1506385835.9,286047004.0,N
1506385855.8,286047005.7,N
1506385875.6,286047003.1,N
1506385895.4,286047007.3,N
1506385915.3,286047008.7,N
1506385935.1,286047006.5,N
1506385936.0,286047006.5,N
1506385955.8,286047006.2,N
1506385975.7,286047010.2,N
1506385995.5,286047008.7,N
1506386015.3,286047008.4,N
1506386035.2,286047010.1,N
1506386055.9,286047008.9,N
1506386075.7,286047008.5,N
1506386095.6,286047006.6,N
1506386115.4,286047006.4,N
1506386135.2,286047005.0,N
1506386155.0,286047004.8,N
1506386156.0,286047004.8,N
1506386175.8,286047007.2,N
1506386195.6,286047004.8,N
1506386215.4,286047003.3,N
1506386235.3,286047005.5,N
1506386255.1,286047007.6,N
1506386275.8,286047008.7,N
1506386295.7,286047008.1,N
1506386315.5,286047008.8,N
1506386335.3,286047009.7,Y
1506386355.2,286047003.9,P
1506386375.0,286047003.8,P
1506386375.9,286047003.8,P
1506386395.7,286047005.0,Y
1506386415.6,286047003.9,P
1506386435.4,286047004.2,P
1506386455.2,286047003.3,P
1506386475.1,286047005.5,Y
1506386476.0,286047005.5,P
1506386495.8,286047002.5,P
1506386515.6,286046997.0,N
1506386535.5,286046996.2,N
1506386555.3,286046995.6,N
1506386575.1,286046992.6,N
1506386595.9,286046987.8,N
1506386615.7,286046983.8,N
1506386635.5,286046984.3,N
1506386655.4,286046983.1,N
1506386675.2,286046981.7,N
1506386695.0,286046979.4,N
1506386695.9,286046979.4,N
1506386715.8,286046978.5,N
1506386735.6,286046978.6,N
1506386755.4,286046978.5,N
1506386775.3,286046981.9,N
1506386795.1,286046981.4,N
1506386796.0,286046981.4,N
1506386815.8,286046980.6,N
1506386835.6,286046984.3,N
1506386855.5,286046985.1,N
1506386875.3,286046985.8,N
1506386895.1,286046985.8,N
1506386915.9,286046985.4,N
1506386935.7,286046985.9,N
1506386955.5,286046985.7,N
1506386975.4,286046988.3,N
1506386995.2,286046986.5,N
1506387015.0,286046986.1,N
1506387015.9,286046986.1,N
1506387035.8,286046985.3,N
1506387055.6,286046989.7,N
1506387075.4,286046991.5,N
1506387095.3,286046991.5,N
1506387115.1,286046989.0,N
1506387116.0,286046989.0,Y
1506387135.8,286047003.0,P
1506387155.7,286047006.0,N
1506387175.5,286047004.2,N
1506387195.3,286047005.2,N
1506387215.2,286047006.4,N
1506387235.9,286047005.1,N
1506387255.7,286047005.5,N
1506387275.5,286047004.7,N
1506387295.4,286047006.1,N
1506387315.2,286047006.1,N
1506387335.0,286047009.1,N
1506387335.9,286047009.1,N
1506387355.8,286047009.2,N
1506387375.6,286047005.4,N
1506387395.4,286047004.4,N
1506387415.3,286047002.3,N
1506387435.1,286046999.7,N
1506387455.8,286047002.5,N
1506387475.7,286047002.4,N
1506387495.5,286047002.6,N
1506387515.3,286047002.1,N
1506387535.2,286047001.5,N
1506387555.9,286047001.5,N
1506387575.7,286047001.5,N
1506387595.5,286047006.0,N
